Location: Asheville, NC
(35.6000°N, 82.5500°W)
Time: 20:43:41
(UTC-04:00)

Vanguard 2 - Pass Details

Date: 11 December 2017
Orbit: 553 x 2939 km, 32.9° (Epoch: 22 June)

Event Time Altitude Azimuth Distance (km) Brightness Sun altitude
Rises 13:18:22 0° 201° (SSW) 5,440 13.1 29.9°
Reaches altitude 10° 13:25:05 10° 177° (S) 3,804 12.4 29.6°
Maximum altitude 13:28:43 13° 155° (SSE) 3,226 11.5 29.4°
Drops below altitude 10° 13:31:48 10° 131° (SE) 3,109 11.0 29.2°
Sets 13:36:01 0° 103° (ESE) 3,624 10.9 28.9°
